EW7749 Weather Reports


time (UTC)temp
C
wind
direction
speed
KPH
gust
KPH
rain 1hr
cm
rain 24hr
cm
rain mn
cm
humidity
%
barometer
mb
20260510000111 30 133 4.8 6.4 0.00 0.03 0.03 58 1009.2
20260509235610 30 124 4.8 6.4 0.00 0.03 0.03 57 1009.2
20260509235110 30 138 4.8 8.0 0.00 0.03 0.03 57 1009.0
20260509234609 30 130 3.2 8.0 0.00 0.03 0.03 57 1009.1
20260509234108 31 124 3.2 9.7 0.00 0.03 0.03 57 1009.0
20260509233608 31 116 3.2 9.7 0.00 0.03 0.03 56 1009.1
20260509233108 31 141 1.6 6.4 0.00 0.03 0.03 56 1009.0
20260509232608 31 141 1.6 6.4 0.00 0.03 0.03 56 1009.0
20260509232114 31 354 3.2 4.8 0.00 0.03 0.03 49 1009.0
20260509232108 31 138 4.8 6.4 0.00 0.03 0.03 53 1008.9
20260509231107 31 133 0.0 6.4 0.00 0.03 0.03 55 1009.0
20260509230608 31 133 3.2 6.4 0.00 0.03 0.03 55 1009.0
20260509230107 32 135 0.0 4.8 0.00 0.03 0.03 54 1008.9
20260509225608 32 117 1.6 4.8 0.00 0.03 0.03 53 1008.9
20260509225107 32 141 0.0 3.2 0.00 0.03 0.03 52 1008.9
20260509224611 32 135 0.0 3.2 0.00 0.03 0.03 48 1009.0
20260509224607 32 135 0.0 1.6 0.00 0.03 0.03 48 1009.0
20260509223607 32 135 0.0 6.4 0.00 0.03 0.03 44 1009.0
20260509223107 31 135 1.6 6.4 0.00 0.03 0.03 43 1009.1
20260509222607 31 138 0.0 3.2 0.00 0.03 0.03 46 1009.0
20260509222107 31 138 0.0 4.8 0.00 0.03 0.03 47 1008.9
20260509221606 31 138 1.6 4.8 0.00 0.03 0.03 47 1009.0
20260509221107 31 125 0.0 4.8 0.00 0.03 0.03 48 1008.8
20260509220611 30 131 0.0 6.4 0.00 0.03 0.03 44 1009.0
20260509220607 31 125 0.0 4.8 0.00 0.03 0.03 48 1008.9
20260509215607 30 130 1.6 6.4 0.00 0.03 0.03 44 1009.0
20260509215106 30 125 0.0 8.0 0.00 0.03 0.03 46 1009.0
20260509214607 30 125 1.6 8.0 0.00 0.03 0.03 48 1009.1
20260509214107 30 128 4.8 9.7 0.00 0.03 0.03 50 1009.2
20260509213610 30 165 4.8 9.7 0.00 0.03 0.03 51 1009.3
20260509213606 30 128 1.6 9.7 0.00 0.03 0.03 50 1009.2
20260509212606 30 131 3.2 9.7 0.00 0.03 0.03 51 1009.4
20260509212105 30 134 4.8 8.0 0.00 0.03 0.03 50 1009.5
20260509211605 30 127 1.6 9.7 0.00 0.03 0.03 52 1009.6
20260509211110 30 123 6.4 11.3 0.00 0.03 0.03 51 1009.7
20260509211106 30 118 0.0 11.3 0.00 0.03 0.03 51 1009.6
20260509210106 30 90 3.2 14.5 0.00 0.03 0.03 54 1009.7
20260509205614 30 131 1.6 8.0 0.00 0.03 0.03 46 1009.6
20260509205604 30 173 4.8 14.5 0.00 0.03 0.03 56 1009.8
20260509205106 31 113 9.7 14.5 0.00 0.03 0.03 55 1009.7
20260509204604 31 111 4.8 9.7 0.00 0.03 0.03 47 1009.5
20260509204105 31 92 4.8 9.7 0.00 0.03 0.03 45 1009.6
20260509203104 30 145 3.2 8.0 0.00 0.03 0.03 49 1009.6
20260509202610 29 124 3.2 6.4 0.00 0.03 0.03 50 1009.8
20260509202604 29 111 4.8 8.0 0.00 0.03 0.03 48 1009.8
20260509202224 28 109 1.6 9.7 0.00 0.03 0.03 59 1010.1
20260509201605 28 341 3.2 9.7 0.00 0.03 0.03 54 1009.9
20260509200605 27 82 3.2 17.7 0.00 0.03 0.03 60 1010.4
20260509200105 27 73 6.4 17.7 0.00 0.03 0.03 59 1010.7
20260509195611 27 123 3.2 20.9 0.00 0.03 0.03 60 1010.5
20260509195605 27 13 4.8 9.7 0.00 0.03 0.03 60 1010.6
20260509195105 27 135 1.6 9.7 0.00 0.03 0.03 62 1010.5
20260509194104 28 59 6.4 20.9 0.00 0.03 0.03 52 1010.5
20260509193603 30 65 3.2 9.7 0.00 0.03 0.03 47 1010.3
20260509193109 32 117 1.6 6.4 0.00 0.03 0.03 54 1010.2
20260509193104 32 316 4.8 9.7 0.00 0.03 0.03 54 1010.4
20260509192104 33 158 0.0 6.4 0.00 0.03 0.03 54 1010.1
20260509191609 33 100 1.6 6.4 0.00 0.03 0.03 56 1010.3
20260509191605 33 45 1.6 6.4 0.00 0.03 0.03 55 1010.2
20260509190602 33 147 0.0 6.4 0.00 0.03 0.03 55 1010.2
20260509185603 33 124 1.6 6.4 0.00 0.03 0.03 55 1010.4
20260509185102 33 151 3.2 6.4 0.00 0.03 0.03 56 1010.5
20260509184605 33 141 3.2 4.8 0.00 0.03 0.03 59 1010.5
20260509184106 32 133 0.0 3.2 0.00 0.03 0.03 58 1010.8
20260509184102 32 142 0.0 3.2 0.00 0.03 0.03 59 1010.6
20260509183717 32 345 0.0 11.3 0.00 0.03 0.03 59 1010.9
20260509182602 32 337 0.0 11.3 0.00 0.03 0.03 58 1011.0
20260509182102 33 116 0.0 9.7 0.00 0.03 0.03 59 1010.9
20260509181607 32 125 0.0 0.0 0.00 0.03 0.03 64 1011.0
20260509181603 33 137 1.6 3.2 0.00 0.03 0.03 60 1011.1
20260509180602 32 124 0.0 3.2 0.00 0.03 0.03 61 1011.1
20260509175602 31 141 0.0 8.0 0.00 0.03 0.03 64 1011.3
20260509175101 31 151 0.0 8.0 0.00 0.03 0.03 65 1011.4
20260509174603 31 135 0.0 6.4 0.00 0.03 0.03 67 1011.4
20260509174106 31 134 0.0 3.2 0.00 0.03 0.03 64 1011.9
20260509174102 31 135 0.0 6.4 0.00 0.03 0.03 65 1011.7
20260509173101 31 276 0.0 3.2 0.00 0.03 0.03 65 1011.9
20260509172605 31 138 0.0 4.8 0.00 0.03 0.03 70 1012.0
20260509172601 31 138 0.0 0.0 0.00 0.03 0.03 67 1011.9
20260509171601 30 138 0.0 4.8 0.00 0.03 0.03 69 1011.9
20260509171100 30 140 0.0 6.4 0.00 0.03 0.03 70 1011.9
20260509170600 30 135 3.2 6.4 0.00 0.03 0.03 68 1011.8
20260509170101 30 155 0.0 4.8 0.00 0.03 0.03 70 1011.9
20260509165602 30 169 0.0 6.4 0.00 0.03 0.03 71 1011.9
20260509165101 30 142 1.6 6.4 0.00 0.03 0.03 72 1012.0
20260509164601 29 192 0.0 8.0 0.00 0.03 0.03 72 1012.0
20260509164100 29 141 0.0 8.0 0.00 0.03 0.03 72 1012.0
20260509163559 29 148 0.0 8.0 0.00 0.03 0.03 74 1012.1
20260509163101 28 147 0.0 8.0 0.00 0.03 0.03 74 1012.0
20260509162601 28 140 1.6 8.0 0.00 0.03 0.03 74 1012.1
20260509162104 28 261 0.0 8.0 0.00 0.03 0.03 75 1012.0
20260509162100 28 144 3.2 8.0 0.00 0.03 0.03 73 1012.1
20260509161100 28 264 0.0 8.0 0.00 0.03 0.03 77 1012.0
20260509160600 28 140 0.0 4.8 0.00 0.03 0.03 77 1012.0
20260509155600 27 237 0.0 8.0 0.00 0.03 0.03 82 1012.1
20260509155059 27 188 0.0 8.0 0.00 0.03 0.03 83 1012.0
20260509154558 26 148 0.0 4.8 0.00 0.03 0.03 84 1012.1
20260509154106 25 161 0.0 8.0 0.00 0.03 0.03 84 1012.1
20260509154101 26 137 3.2 6.4 0.00 0.03 0.03 85 1012.1
20260509153559 25 137 1.6 6.4 0.00 0.03 0.03 84 1012.0
20260509153058 25 147 1.6 6.4 0.00 0.03 0.03 84 1012.0
20260509152059 25 171 3.2 8.0 0.00 0.03 0.03 83 1012.1
20260509151559 25 144 4.8 8.0 0.00 0.03 0.03 83 1012.1
20260509151100 25 145 1.6 6.4 0.00 0.03 0.03 81 1012.1
20260509150559 25 144 1.6 6.4 0.00 0.03 0.03 79 1012.1
20260509150059 25 138 0.0 8.0 0.00 0.03 0.03 69 1011.9
20260509145557 24 144 3.2 9.7 0.00 0.03 0.03 70 1012.0
20260509145057 23 124 3.2 9.7 0.00 0.03 0.03 68 1011.9
20260509144559 23 117 1.6 8.0 0.00 0.03 0.03 66 1012.0
20260509144057 23 141 3.2 8.0 0.00 0.03 0.03 67 1011.9
20260509143558 23 120 3.2 8.0 0.00 0.03 0.03 66 1011.8
20260509143102 23 144 4.8 6.4 0.00 0.03 0.03 63 1011.6
20260509143057 23 141 3.2 8.0 0.00 0.03 0.03 66 1011.7
20260509142557 23 125 3.2 6.4 0.00 0.03 0.03 64 1011.6
20260509142217 23 175 1.6 8.0 0.00 0.03 0.03 61 1011.6
20260509141720 23 134 4.8 9.7 0.00 0.03 0.03 60 1011.4
20260509140557 23 125 3.2 9.7 0.00 0.03 0.03 59 1011.3
20260509140058 23 134 3.2 4.8 0.00 0.03 0.03 59 1011.4
20260509135556 23 121 0.0 0.0 0.00 0.03 0.03 56 1011.4
20260509135057 23 121 0.0 0.0 0.00 0.03 0.03 56 1011.5
20260509134557 23 121 0.0 0.0 0.00 0.03 0.03 54 1011.4
20260509134057 23 224 0.0 0.0 0.00 0.03 0.03 54 1011.5
20260509133557 23 224 0.0 0.0 0.00 0.03 0.03 54 1011.7
20260509133104 23 348 0.0 0.0 0.00 0.03 0.03 54 1011.9
20260509133057 23 224 0.0 0.0 0.00 0.03 0.03 55 1011.8
20260509132056 23 334 0.0 0.0 0.00 0.03 0.03 54 1011.9
20260509131555 22 351 0.0 0.0 0.00 0.03 0.03 54 1011.9
20260509131100 22 334 0.0 0.0 0.00 0.03 0.03 55 1012.0
20260509131056 22 238 0.0 0.0 0.00 0.03 0.03 54 1012.0
20260509130055 22 117 0.0 0.0 0.00 0.03 0.03 55 1011.8
20260509125556 22 117 0.0 0.0 0.00 0.03 0.03 55 1011.6
20260509125059 22 117 0.0 0.0 0.00 0.03 0.03 55 1011.6
20260509125055 22 117 0.0 0.0 0.00 0.03 0.03 55 1011.7
20260509124054 22 117 0.0 0.0 0.03 0.03 0.03 55 1011.4
20260509123557 22 117 0.0 0.0 0.03 0.03 0.03 55 1011.4
20260509123056 22 117 0.0 0.0 0.03 0.03 0.03 55 1011.3
20260509122554 22 117 0.0 0.0 0.03 0.03 0.03 55 1011.5
20260509122055 22 117 0.0 0.0 0.03 0.03 0.03 55 1011.7
20260509121554 22 117 0.0 0.0 0.03 0.03 0.03 56 1011.6
20260509121055 22 99 0.0 0.0 0.03 0.03 0.03 56 1011.3
20260509120554 22 99 0.0 0.0 0.03 0.03 0.03 56 1011.4
20260509120055 22 121 0.0 0.0 0.03 0.03 0.03 56 1011.6
20260509115555 22 121 0.0 0.0 0.03 0.03 0.03 56 1011.5
20260509115054 22 121 0.0 0.0 0.03 0.03 0.03 57 1011.7
20260509114555 22 121 0.0 0.0 0.03 0.03 0.03 57 1011.5
20260509114056 22 121 0.0 0.0 0.00 0.00 0.00 57 1011.7
20260509113558 22 121 0.0 0.0 0.00 0.00 0.00 57 1012.2
20260509113553 22 121 0.0 0.0 0.00 0.00 0.00 56 1011.9
20260509112554 22 123 0.0 0.0 0.00 0.00 0.00 57 1012.4
20260509112101 22 123 0.0 0.0 0.00 0.00 0.00 57 1012.3
20260509112054 22 123 0.0 0.0 0.00 0.00 0.00 57 1012.3
20260509111554 22 123 0.0 0.0 0.00 0.00 0.00 57 1012.2
20260509110554 22 123 0.0 0.0 0.00 0.00 0.00 58 1012.4
20260509110054 22 123 0.0 0.0 0.00 0.00 0.00 58 1012.5
20260509105552 22 123 0.0 0.0 0.00 0.00 0.00 58 1012.5
20260509105054 22 123 0.0 0.0 0.00 0.00 0.00 58 1012.4
20260509104557 22 123 0.0 0.0 0.00 0.00 0.00 58 1012.6
20260509104553 22 123 0.0 0.0 0.00 0.00 0.00 58 1012.5
20260509103552 22 123 0.0 0.0 0.00 0.00 0.00 58 1012.6
20260509103054 22 123 0.0 0.0 0.00 0.00 0.00 58 1012.7
20260509102552 22 123 0.0 0.0 0.00 0.00 0.00 59 1012.7
20260509102053 22 123 0.0 0.0 0.00 0.00 0.00 59 1012.5
20260509101553 22 123 0.0 0.0 0.00 0.00 0.00 59 1012.4
20260509101052 22 123 0.0 0.0 0.00 0.00 0.00 60 1012.3
20260509100551 22 123 0.0 0.0 0.00 0.00 0.00 60 1011.9
20260509100050 22 123 0.0 0.0 0.00 0.00 0.00 60 1011.6
20260509095552 22 123 0.0 0.0 0.00 0.00 0.00 60 1011.3
20260509095054 22 123 0.0 0.0 0.00 0.00 0.00 60 1011.1
20260509094552 22 123 0.0 0.0 0.00 0.00 0.00 60 1011.1
20260509094050 22 123 0.0 0.0 0.00 0.00 0.00 61 1011.3
20260509093557 22 123 0.0 0.0 0.00 0.00 0.00 62 1011.3
20260509093552 22 123 0.0 0.0 0.00 0.00 0.00 62 1011.3
20260509093210 22 123 0.0 0.0 0.00 0.00 0.00 62 1011.0
20260509092051 22 123 0.0 0.0 0.00 0.00 0.00 62 1011.0
20260509091558 22 123 0.0 0.0 0.00 0.00 0.00 63 1011.0
20260509091552 22 123 0.0 0.0 0.00 0.00 0.00 62 1011.0
20260509090550 22 123 0.0 0.0 0.00 0.00 0.00 63 1011.1
20260509090052 22 123 0.0 0.0 0.00 0.00 0.00 63 1011.1
20260509085552 22 123 0.0 0.0 0.00 0.00 0.00 64 1011.0
20260509085051 22 123 0.0 0.0 0.00 0.00 0.00 64 1011.0
20260509084549 22 123 0.0 0.0 0.00 0.00 0.00 65 1011.3
20260509084050 22 123 0.0 0.0 0.00 0.00 0.00 65 1011.1
20260509083551 22 123 0.0 0.0 0.00 0.00 0.00 65 1011.1
20260509083048 22 123 0.0 0.0 0.00 0.00 0.00 65 1011.4
20260509082550 22 123 0.0 0.0 0.00 0.00 0.00 65 1011.5
20260509082050 22 123 0.0 0.0 0.00 0.00 0.00 66 1011.7
20260509081551 22 123 0.0 0.0 0.00 0.00 0.00 67 1011.8
20260509081050 22 123 0.0 0.0 0.00 0.00 0.00 67 1011.7
20260509080549 22 123 0.0 0.0 0.00 0.00 0.00 67 1011.5
20260509080050 22 123 0.0 0.0 0.00 0.00 0.00 68 1011.5
20260509075549 22 123 0.0 0.0 0.00 0.00 0.00 68 1011.7
20260509075049 22 123 0.0 0.0 0.00 0.00 0.00 69 1011.6
20260509074551 22 123 0.0 0.0 0.00 0.00 0.00 69 1011.6
20260509074054 22 123 0.0 0.0 0.00 0.00 0.00 70 1011.4
20260509074049 22 123 0.0 0.0 0.00 0.00 0.00 70 1011.5
20260509073050 22 123 0.0 0.0 0.00 0.00 0.00 71 1011.5
20260509072552 22 123 0.0 0.0 0.00 0.00 0.00 72 1011.6
20260509072548 22 123 0.0 0.0 0.00 0.00 0.00 71 1011.8
20260509071548 22 123 0.0 0.0 0.00 0.00 0.00 72 1011.7
20260509071049 22 123 0.0 0.0 0.00 0.00 0.00 72 1011.8
20260509070549 22 123 0.0 1.6 0.00 0.00 0.00 73 1011.9
20260509070048 22 123 0.0 1.6 0.00 0.00 0.00 73 1011.8
20260509065548 22 123 0.0 0.0 0.00 0.00 0.00 74 1011.9
20260509065048 22 123 0.0 3.2 0.00 0.00 0.00 74 1011.7
20260509064547 22 123 0.0 4.8 0.00 0.00 0.00 75 1011.5
20260509064048 22 123 1.6 6.4 0.00 0.00 0.00 75 1011.4
20260509063548 22 117 3.2 6.4 0.00 0.00 0.00 76 1011.5
20260509063048 22 121 0.0 8.0 0.00 0.00 0.00 77 1011.5
20260509062547 22 116 3.2 8.0 0.00 0.00 0.00 78 1011.7
20260509062051 22 137 1.6 14.5 0.00 0.00 0.00 79 1011.5
20260509062047 22 137 1.6 8.0 0.00 0.00 0.00 79 1011.6
20260509061204 23 131 4.8 16.1 0.00 0.00 0.00 82 1011.0
20260509061052 23 157 3.2 16.1 0.00 0.00 0.00 81 1011.1
20260509061048 22 134 4.8 14.5 0.00 0.00 0.00 81 1011.3
20260509055553 23 125 3.2 9.7 0.00 0.00 0.00 82 1011.3
20260509055546 23 135 4.8 6.4 0.00 0.00 0.00 82 1011.0
20260509055047 23 138 3.2 8.0 0.00 0.00 0.00 82 1011.3
20260509054047 23 292 6.4 9.7 0.00 0.00 0.00 83 1011.3
20260509053547 23 144 4.8 9.7 0.00 0.00 0.00 83 1011.3
20260509053048 23 124 3.2 9.7 0.00 0.00 0.00 83 1011.1
20260509052546 23 135 4.8 9.7 0.00 0.00 0.00 83 1010.8
20260509052045 23 135 4.8 9.7 0.00 0.00 0.00 83 1010.7
20260509051547 23 135 4.8 8.0 0.00 0.00 0.00 83 1010.5
20260509051047 23 121 3.2 8.0 0.00 0.00 0.00 84 1010.6
20260509050546 23 120 4.8 6.4 0.00 0.00 0.00 84 1010.6
20260509050045 23 131 4.8 9.7 0.00 0.00 0.00 84 1010.7
20260509045545 23 145 3.2 9.7 0.00 0.00 0.00 84 1010.7
20260509045045 23 127 3.2 6.4 0.00 0.00 0.00 84 1010.6
20260509044546 23 135 1.6 6.4 0.00 0.00 0.00 84 1010.6
20260509044045 23 135 1.6 6.4 0.00 0.00 0.00 84 1010.6
20260509043545 23 140 3.2 4.8 0.00 0.00 0.00 84 1010.7
20260509043052 23 118 3.2 6.4 0.00 0.00 0.00 84 1010.7
20260509043046 23 121 3.2 4.8 0.00 0.00 0.00 84 1010.7
20260509042046 24 121 3.2 6.4 0.00 0.00 0.00 84 1010.9
20260509041545 24 140 3.2 9.7 0.00 0.00 0.00 84 1010.9
20260509041045 24 118 4.8 9.7 0.00 0.00 0.00 84 1010.9
20260509040545 24 145 3.2 4.8 0.00 0.00 0.00 84 1011.0
20260509040045 24 135 3.2 4.8 0.00 0.00 0.00 84 1011.0
20260509035545 24 130 3.2 4.8 0.00 0.00 0.00 84 1010.9
20260509035045 24 134 0.0 8.0 0.00 0.00 0.00 84 1010.9
20260509034548 24 140 3.2 6.4 0.00 0.00 0.00 84 1010.8
20260509034545 24 134 3.2 8.0 0.00 0.00 0.00 84 1010.8
20260509033545 24 123 1.6 4.8 0.00 0.00 0.00 84 1010.8
20260509033049 24 127 1.6 6.4 0.00 0.00 0.00 84 1010.9
20260509033043 24 123 3.2 6.4 0.00 0.00 0.00 84 1010.9
20260509032709 24 123 3.2 4.8 0.00 0.00 0.00 84 1010.9
20260509032543 24 127 3.2 6.4 0.00 0.00 0.00 84 1010.9
20260509031044 24 124 3.2 8.0 0.00 0.00 0.00 84 1010.8
20260509030545 24 124 3.2 8.0 0.00 0.00 0.00 84 1010.7
20260509030043 24 138 3.2 8.0 0.00 0.00 0.00 84 1010.5
20260509025543 24 135 3.2 6.4 0.00 0.00 0.00 84 1010.5
20260509025048 24 141 3.2 4.8 0.00 0.00 0.00 83 1010.3
20260509025043 24 141 3.2 4.8 0.00 0.00 0.00 84 1010.5
20260509024543 24 141 1.6 4.8 0.00 0.00 0.00 84 1010.4
20260509023543 24 134 0.0 6.4 0.00 0.00 0.00 83 1010.3
20260509023047 24 135 3.2 4.8 0.00 0.00 0.00 83 1010.2
20260509023042 24 134 3.2 6.4 0.00 0.00 0.00 83 1010.3
20260509022703 24 144 3.2 4.8 0.00 0.00 0.00 83 1010.2
20260509021542 24 138 1.6 6.4 0.00 0.00 0.00 83 1010.2
20260509021043 24 140 3.2 6.4 0.00 0.00 0.00 82 1010.0
20260509020542 24 138 1.6 6.4 0.00 0.00 0.00 82 1010.0
20260509020042 25 138 3.2 8.0 0.00 0.00 0.00 82 1009.9
20260509015542 25 149 6.4 8.0 0.00 0.00 0.00 82 1009.8
20260509015042 25 135 3.2 8.0 0.00 0.00 0.00 82 1009.7
20260509014542 25 164 3.2 8.0 0.00 0.00 0.00 81 1009.7
20260509014048 25 145 6.4 8.0 0.00 0.00 0.00 81 1009.8
20260509014042 25 138 3.2 8.0 0.00 0.00 0.00 81 1009.8
20260509013046 25 135 3.2 8.0 0.00 0.00 0.00 81 1009.8
20260509013041 25 138 3.2 8.0 0.00 0.00 0.00 81 1009.7
20260509012047 25 138 1.6 6.4 0.00 0.00 0.00 80 1009.7
20260509012043 25 140 3.2 4.8 0.00 0.00 0.00 81 1009.8
20260509011041 25 145 3.2 6.4 0.00 0.00 0.00 80 1009.7
20260509010541 25 137 1.6 8.0 0.00 0.00 0.00 80 1009.6
20260509010040 25 96 1.6 8.0 0.00 0.00 0.00 80 1009.7
20260509005542 25 128 1.6 8.0 0.00 0.00 0.00 80 1009.6
20260509005045 25 125 4.8 9.7 0.00 0.00 0.00 79 1009.6
20260509005040 25 120 4.8 9.7 0.00 0.00 0.00 79 1009.5
20260509004040 25 120 4.8 9.7 0.00 0.00 0.00 79 1009.6
20260509003539 25 123 4.8 9.7 0.00 0.00 0.00 78 1009.4
20260509003040 26 140 4.8 9.7 0.00 0.00 0.00 78 1009.5
20260509002538 26 130 6.4 9.7 0.00 0.00 0.00 78 1009.5
20260509002040 26 123 6.4 9.7 0.00 0.00 0.00 77 1009.5
20260509001542 26 138 4.8 9.7 0.00 0.00 0.00 77 1009.5
20260509001040 26 142 3.2 6.4 0.00 0.00 0.00 77 1009.5
20260509000539 26 145 1.6 9.7 0.00 0.00 0.00 76 1009.6